Regional Weather Roundup
Issued by NWS

Home | Current Version | Previous Version | Graphics & Text | Print | Product List | Glossary On
Versions: 1 2 3 4 5 6 7 8 9 10 11 12 13 14 15 16 17 18 19 20 21 22 23 24 25 26 27 28 29 30 31 32 33 34 35 36 37 38 39 40 41 42 43 44 45 46 47 48 49 50
000
ASUS43 KLMK 301802
RWRKY
KENTUCKY REGIONAL WEATHER ROUNDUP
NATIONAL WEATHER SERVICE LOUISVILLE KY
200 PM EDT TUE SEP 30 2014

NOTE "FAIR" INDICATES FEW OR NO CLOUDS BELOW 12,000 FEET
WITH NO SIGNIFICANT WEATHER AND/OR OBSTRUCTIONS TO VISIBILITY.

KYZ001>023-026-027-061>063-070>075-301900-
WESTERN AND SOUTH CENTRAL KENTUCKY

CITY           SKY/WX    TMP DP  RH WIND       PRES   REMARKS
PADUCAH        SUNNY     84  54  35 VRB3      29.93F
HENDERSON      NOT AVBL
OWENSBORO      MOSUNNY   85  54  34 NW8       29.93F
HOPKINSVILLE   SUNNY     85  52  32 VRB7      29.93F
BOWLING GREEN  SUNNY     83  49  30 CALM      29.94F
GLASGOW        SUNNY     83  49  29 CALM      29.95F
$$

KYZ024-025-028>034-038-045-046-053-301900-
NORTH CENTRAL KENTUCKY

CITY           SKY/WX    TMP DP  RH WIND       PRES   REMARKS
LOUISVILLE/SDF MOSUNNY   84  56  38 W10       29.93F
LOUISVILLE/LOU SUNNY     82  57  42 VRB5      29.93F
FORT KNOX      SUNNY     82  56  41 VRB7      29.93F
$$

KYZ035>037-039>044-047>052-055>060-089>105-301900-
NORTHEAST KENTUCKY

CITY           SKY/WX    TMP DP  RH WIND       PRES   REMARKS
LEXINGTON      SUNNY     83  53  35 W6        29.94F
COVINGTON      MOSUNNY   79  57  46 NE6       29.92F
FRANKFORT      SUNNY     81  52  36 W8        29.93F
$$

KYZ054-064>069-076>088-106>120-301900-
SOUTHEAST KENTUCKY

CITY           SKY/WX    TMP DP  RH WIND       PRES   REMARKS
JACKSON        SUNNY     77  53  43 CALM      29.96F
LONDON         SUNNY     81  53  37 NE8       29.96F
SOMERSET       SUNNY     79  46  31 CALM      29.96F
MIDDLESBORO    PTSUNNY   76  58  52 CALM      29.96F
MONTICELLO     CLEAR     83  49  30 W9        29.97F
$$



USA.gov is the U.S. government's official web portal to all federal, state and local government web resources and services.